This is the latest recevied weather packets stored in our database for station/object HUGOCO. If no packets are shown the sender has not sent any weather packets the latest 10 day(s).
| Time | Temp. | Humidity | Pressure | Rain* | Wind** | Luminosity | Snow |
|---|---|---|---|---|---|---|---|
| 1777650071 | 8.33° C | 55% | 1026 hPa | 0 mm | - | - | - |
| 1777649771 | 8.33° C | 58% | 1026 hPa | 0 mm | - | - | - |
| 1777649471 | 8.33° C | 57% | 1026 hPa | 0 mm | - | - | - |
| 1777649171 | 7.78° C | 62% | 1026 hPa | 0 mm | - | - | - |
| 1777648871 | 7.78° C | 64% | 1026 hPa | 0 mm | - | - | - |
| 1777648271 | 7.22° C | 68% | 1026 hPa | 0 mm | - | - | - |
| 1777647971 | 7.22° C | 69% | 1026 hPa | 0 mm | - | - | - |
| 1777647672 | 7.22° C | 72% | 1026.1 hPa | 0 mm | - | - | - |
| 1777647372 | 6.67° C | 74% | 1026.1 hPa | 0 mm | - | - | - |
| 1777647072 | 6.67° C | 75% | 1026.1 hPa | 0 mm | - | - | - |
| 1777646772 | 6.67° C | 77% | 1026.1 hPa | 0 mm | - | - | - |
| 1777646472 | 6.11° C | 78% | 1026.1 hPa | 0 mm | - | - | - |
| 1777646172 | 6.11° C | 80% | 1026.1 hPa | 0 mm | - | - | - |
| 1777645872 | 5.56° C | 81% | 1026.2 hPa | 0 mm | - | - | - |
| 1777645572 | 5.56° C | 82% | 1026.2 hPa | 0 mm | - | - | - |
| 1777645272 | 5° C | 81% | 1026.2 hPa | 0 mm | - | - | - |
| 1777644972 | 5° C | 81% | 1026.1 hPa | 0 mm | - | - | - |
| 1777644672 | 4.44° C | 82% | 1026 hPa | 0 mm | - | - | - |
| 1777644372 | 4.44° C | 83% | 1026.1 hPa | 0 mm | - | - | - |
| 1777644072 | 3.89° C | 84% | 1026.2 hPa | 0 mm | - | - | - |
| 1777643772 | 3.89° C | 85% | 1026.1 hPa | 0 mm | - | - | - |
| 1777643472 | 3.89° C | 86% | 1026.2 hPa | 0 mm | - | - | - |
| 1777643172 | 3.33° C | 86% | 1026.1 hPa | 0 mm | - | - | - |
| 1777642872 | 3.33° C | 87% | 1026.1 hPa | 0 mm | - | - | - |
| 1777642572 | 2.78° C | 87% | 1026.1 hPa | 0 mm | - | - | - |
* Rain latest hour (hover to see other rain measurements)
** Current wind speed in m/s (hover to see current wind gust speed)